This demonstration page uses our WeatherBlox Daily Observations layout. Learn more.

Left ArrowRight Arrow

Hourly Observations for April 17, 2021

Temp ( °F °C ) Dew Point ( °F °C ) Humidity (%) Winds ( mph kmh ) Pressure ( in mb ) Visibility ( mi km ) Precip ( " mm )
12:05 am 00:05 Cloudy with Light Rain 39 4 37 3 93 93 NNW 9 15 30.20 1023 10 16 0.00 0.00
12:48 am 00:48 Cloudy with Light Rain 39 4 37 3 93 93 NNW 9 15 30.20 1023 10 16 0.00 0.00
12:56 am 00:56 Cloudy with Light Rain 39 3.9 37 2.8 93 93 NNW 8 13 30.18 1022 10 16 0.00 0.00
1:56 am 01:56 Cloudy with Light Rain 39 3.9 37 2.8 93 93 NNW 9 15 30.18 1022 10 16 0.00 0.00
2:49 am 02:49 Cloudy 39 4 37 3 93 93 N 10 17 30.19 1022 10 16 0.00 0.00
2:56 am 02:56 Cloudy 39 3.9 37 2.8 93 93 NNW 10 17 30.16 1022 10 16 0.00 0.00
3:56 am 03:56 Cloudy with Light Rain 39 3.9 37 2.8 93 93 N 10 17 30.16 1022 10 16 0.00 0.00
4:44 am 04:44 Cloudy with Light Rain 37 3 37 3 100 100 NNW 13 20 30.20 1023 10 16 0.00 0.00
4:56 am 04:56 Cloudy with Light Rain 38 3.3 36 2.2 93 93 N 15 24 30.17 1022 10 16 0.00 0.00
5:47 am 05:47 Cloudy with Light Rain 37 3 36 2 93 93 N 14 22 30.20 1023 10 16 0.00 0.00
5:56 am 05:56 Cloudy with Light Rain 38 3.3 36 2.2 93 93 N 10 17 30.18 1022 10 16 0.00 0.00
6:28 am 06:28 Cloudy 37 3 36 2 93 93 N 10 17 30.21 1023 10 16 0.00 0.00
6:56 am 06:56 Cloudy 38 3.3 37 2.8 97 97 N 9 15 30.19 1022 10 16 0.00 0.00
7:25 am 07:25 Cloudy 39 4 37 3 93 93 NNW 7 11 30.23 1024 10 16 0.00 0.00
7:40 am 07:40 Cloudy with Light Rain 39 4 37 3 93 93 NNW 8 13 30.23 1024 10 16 0.00 0.00
7:56 am 07:56 Cloudy with Light Rain 39 3.9 37 2.8 93 93 NNW 8 13 30.21 1023 10 16 0.00 0.00
8:34 am 08:34 Cloudy with Light Rain 39 4 37 3 93 93 N 10 17 30.24 1024 10 16 0.00 0.00
8:56 am 08:56 Cloudy 40 4.4 37 2.8 89 89 N 10 17 30.22 1023 10 16 0.00 0.00
9:56 am 09:56 Cloudy with Light Rain 40 4.4 37 2.8 89 89 NNW 13 20 30.22 1024 9 14 0.00 0.00
10:43 am 10:43 Cloudy with Light Rain 41 5 37 3 87 87 NNW 16 26 30.24 1024 10 16 0.00 0.00
10:56 am 10:56 Cloudy with Light Rain 42 5.6 38 3.3 85 85 NNW 15 24 30.22 1023 10 16 0.00 0.00
11:56 am 11:56 Cloudy 43 6.1 36 2.2 76 76 N 18 30 30.21 1023 10 16 0.00 0.00
12:56 pm 12:56 Cloudy 45 7.2 36 2.2 71 71 N 16 26 30.21 1023 10 16 0.00 0.00
1:32 pm 13:32 Cloudy 45 7 36 2 71 71 N 13 20 30.20 1023 10 16 0.00 0.00
1:56 pm 13:56 Cloudy 45 7.2 36 2.2 71 71 N 9 15 30.20 1023 10 16 0.00 0.00
2:56 pm 14:56 Cloudy 47 8.3 36 2.2 66 66 N 13 20 30.19 1022 10 16 0.00 0.00
3:56 pm 15:56 Cloudy 48 8.9 35 1.7 61 61 NNE 15 24 30.17 1022 10 16 0.00 0.00
4:56 pm 16:56 Cloudy 48 8.9 33 0.6 56 56 N 15 24 30.16 1022 10 16 0.00 0.00
5:56 pm 17:56 Cloudy 48 8.9 34 1.1 58 58 N 9 15 30.16 1021 10 16 0.00 0.00
6:56 pm 18:56 Cloudy 47 8.3 38 3.3 71 71 WNW 12 19 30.16 1022 10 16 0.00 0.00
7:56 pm 19:56 Partly Cloudy 44 6.7 37 2.8 76 76 W 8 13 30.16 1021 10 16 0.00 0.00
8:56 pm 20:56 Cloudy 43 6.1 36 2.2 76 76 NW 6 9 30.17 1022 10 16 0.00 0.00
9:56 pm 21:56 Cloudy 40 4.4 36 2.2 86 86 WNW 6 9 30.18 1022 10 16 0.00 0.00
10:56 pm 22:56 Partly Cloudy 39 3.9 35 1.7 86 86 WNW 7 11 30.18 1022 10 16 0.00 0.00
11:56 pm 23:56 Clear 37 2.8 33 0.6 86 86 WNW 6 9 30.18 1022 10 16 0.00 0.00

Powered by AerisWeather